Simultaneous Nadir Overpasses (SNOs) Predictions

Prediction of SNOs near equator between AQUA and NPP Satellite Orbit:

Table of predicted SNOs near equator for the next 14.0 days since TLE Epoch: 10/17/2016
Index Date (AQUA) Time (AQUA) AQUA Lat,Lon Date (NPP) Time (NPP) NPP Lat,Lon Distance(km) Time Diff (sec)
1 10/17/2016 15:35:29 -4.67, 149.23 10/17/2016 15:25:55 -4.67, 149.20 3.00 574
2 10/17/2016 16:23:44 0.07, -42.17 10/17/2016 16:15:25 -0.00, -42.46 32.99 499
3 10/17/2016 17:11:51 4.46, 126.45 10/17/2016 17:04:48 4.55, 125.89 62.99 423
4 10/17/2016 18:00:06 -9.05, -64.95 10/17/2016 17:54:18 -9.23, -65.76 91.96 348
5 10/20/2016 07:09:34 29.95, 91.64 10/20/2016 06:59:34 30.70, 91.31 89.23 600
6 10/20/2016 07:51:30 -3.04, -94.54 10/20/2016 07:42:23 -3.04, -94.67 14.42 547
7 10/20/2016 08:39:45 -1.56, 74.06 10/20/2016 08:31:53 -1.64, 73.67 44.30 472
8 10/20/2016 09:27:53 6.02,-117.33 10/20/2016 09:21:16 6.19,-117.98 74.12 397
9 10/22/2016 23:20:30 9.95,-147.80 10/22/2016 23:10:36 9.95,-147.80 0.33 594
10 10/23/2016 00:07:31 -1.43, 21.69 10/22/2016 23:58:51 -1.41, 21.46 25.82 520
11 10/23/2016 00:55:46 -3.17,-169.72 10/23/2016 00:48:21 -3.27,-170.21 55.72 445
12 10/23/2016 01:43:54 7.63, -1.10 10/23/2016 01:37:44 7.82, -1.85 85.23 370
13 10/25/2016 15:35:23 4.31, -30.70 10/25/2016 15:25:54 4.27, -30.75 7.80 569
14 10/25/2016 16:23:30 0.22, 137.92 10/25/2016 16:15:17 0.28, 137.59 37.26 493
15 10/25/2016 17:11:45 -4.82, -53.48 10/25/2016 17:04:47 -4.96, -54.07 67.11 418
16 10/25/2016 17:59:52 9.35, 115.15 10/25/2016 17:54:10 9.51, 114.29 96.16 342
17 10/28/2016 07:09:25 -29.97, -88.33 10/28/2016 06:59:25 -30.33, -88.60 47.72 600
18 10/28/2016 07:51:23 2.67, 85.54 10/28/2016 07:42:22 2.64, 85.37 18.73 541
19 10/28/2016 08:39:30 1.86,-105.84 10/28/2016 08:31:44 1.97,-106.27 48.93 466
20 10/28/2016 09:27:45 -6.45, 62.76 10/28/2016 09:21:15 -6.59, 62.06 78.53 390
21 10/30/2016 23:19:07 -5.59, 33.19 10/30/2016 23:09:18 -5.57, 33.19 1.85 589
22 10/31/2016 00:07:21 0.93,-158.20 10/30/2016 23:58:48 0.90,-158.48 30.54 513
23 10/31/2016 00:55:29 3.53, 10.41 10/31/2016 00:48:11 3.65, 9.87 60.53 438
24 10/31/2016 01:43:44 -8.13, 179.01 10/31/2016 01:37:41 -8.32, 178.22 89.78 363




NCC Satellite Simultaneous Nadir Overpasses (SNOs) Prediction Service
